CZ-6A DEB

Satellite information

Favourite Embed

Satellite Type and Status

DEBRISIN ORBIT

Key statistics

Satellite CZ-6A DEB at a glance.

Uptime

494

Days in orbit

Revolutions

≈ 14.3

Per day

Orbit

LEO

Low Earth Orbit

Inclination

89.4

Latest

Satellite identification and parameters

Extended collection of information and parameters for CZ-6A DEB.

Object identification

Identified? True

Debris? True

Object name: CZ-6A DEB

International designator: 2024-140DG

Object number (NORAD): 60703

Object ID (CCSDS): 60703

Country: PEOPLES REPUBLIC OF CHINA (PRC)

Current information (Y/N): Y

RCS size: SMALL

Orbital parameters

Period: 100.922 minutes

Inclination: 89.4181 deg

SMA: 7180.456 km

Apoapsis: 881.281 km

Periapsis: 723.362 km

RAAN: 319.4164 deg

Eccentricy: 0.01099639

Argument of periapsis: 334.8039 deg

Mean anomaly: 24.7812 deg

Mean motion: 14.26838062 rev/day

Mean motion (dot): 0.00004134 rev/day2

B* drag term: 0.001594798 1/REarth

Two-line elements (TLE)

Creation date: Dec. 12, 2025, 10:14 a.m.

Reference frame: TEME

Reference center: EARTH

Epoch: Dec. 12, 2025, 5:09 a.m. UTC

TLE line 0: 0 CZ-6A DEB

TLE line 1: 1 60703U 24140DG 25346.21493056 .00004134 00000-0 15948-2 0 9998

TLE line 2: 2 60703 89.4181 319.4164 0109964 334.8039 24.7812 14.26838062 69375

Live tracking on map

Real-time ground track for satellite CZ-6A DEB.

In-orbit conjunctions

A list of the most updated potential collisions computed for object CZ-6A DEB.

Target Orbit TCA Probability of collision Miss distance Type
SL-8 R/B LEO 2025-08-28 03:13:42 0.0009040367 129.0 (m) ROCKET BODY
THOR ABLESTAR DEB LEO 2025-06-06 04:53:33 0.000119917 176.0 (m) DEBRIS
SL-8 DEB LEO 2025-03-04 07:27:24 0.0002333218 699.0 (m) DEBRIS
NOAA 16 DEB SSO 2025-01-27 06:25:26 0.0001676773 982.0 (m) DEBRIS
CZ-6A DEB LEO 2024-10-23 15:43:47 0.000631578 780.0 (m) DEBRIS

Associated space launch

18 Low Earth Orbit communication satellites with Ku, Q and V band payloads for the G60 constellation operated by Shanghai Spacecom Satellite Technology (SSST) with funding backed by the Shanghai local government. Initial constellation will consist of 1296 satellites by 2027 with long term plans to expand it to 12000 satellites.

CZ-6A DEB was lifted into orbit during the mission ‘Long March 6A | G60 Polar Group 01’, on board a Long March 6A space rocket.

The launch took place on Aug. 6, 2024, 6:42 a.m. from Launch Complex 9A.

For more information about the launch, click the button.

Launch to space Long March 6A | G60 Polar Group 01
Long March 6A | G60 Polar Group 01

Agency: N/A

Status: Launch Successful

Launch date: Aug. 6, 2024, 6:42 a.m. UTC

Rocket: Long March 6A

Launch pad: Launch Complex 9A

Location: Taiyuan Satellite Launch Center, People's Republic of China

...

Latest news about this satellite

News about space launch
Brightness of first Chinese broadband constellation satellites alarms astronomers

The first satellites of a Chinese broadband constellation are significantly brighter than those of Western systems, posing a new challenge for astronomers.

News about space launch
Chinese rocket stage breaks up into cloud of more than 700 pieces of space debris

HELSINKI — A Chinese Long March 6A rocket’s upper stage has fragmented into a cloud of over 700 pieces of space debris, adding to concerns about long-term orbital safety. China […]

News about space launch
China's Thousand Sails Megaconstellation Kicks Off with Dangerous Debris Field

China's Thousand Sails Megaconstellation Kicks Off with Dangerous Debris Field


Newsletter sign-up

Weekly statistics, charts and insights to help you stay on top of the space industry.